Regional Weather Roundup
Issued by NWS

Home | Current Version | Previous Version | Graphics & Text | Print | Product List | Glossary On
Versions: 1 2 3 4 5 6 7 8 9 10 11 12 13 14 15 16 17 18 19 20 21 22 23 24 25 26 27 28 29 30 31 32 33 34 35 36 37 38 39 40 41 42 43 44 45 46 47 48 49 50
619
ASUS45 KSLC 071410
RWRUT

UTAH REGIONAL WEATHER ROUNDUP
NATIONAL WEATHER SERVICE SALT LAKE CITY UT
700 AM MST SUN FEB 07 2016

UTZ001>011-023>025-071500-

NORTHERN UTAH

CITY           SKY/WX    TMP DP  RH WIND       PRES   REMARKS
BRIGHAM CITY     N/A     15  12  88 CALM      30.55S VSB<1/4
HILL AFB       PTCLDY    23  13  63 E6        30.52R WCI  16
LOGAN          CLOUDY    18  17  96 CALM      30.53R
OGDEN          PTCLDY    21  16  81 S9        30.53R WCI  11
PROVO AIRPORT  PTCLDY     9   7  92 CALM      30.55R FOG
SALT LAKE CITY MOCLDY    24  18  77 SE7       30.54R WCI  16
VERNAL         CLOUDY     8   3  80 CALM      30.47R
WENDOVER       MOCLDY    21  18  86 CALM      30.53S
HEBER CITY     PTCLDY     5   1  85 CALM      30.50R FOG
WEST JORDAN    CLEAR     21  18  86 CALM      30.54R

$$

UTZ012>022-026-027-071500-

SOUTHERN/CENTRAL UTAH

CITY           SKY/WX    TMP DP  RH WIND       PRES   REMARKS
BLANDING       MOCLDY    20  16  84 W3        30.48R
BRYCE CANYON   PTCLDY     4   0  83 W6        30.46R WCI  -7
CEDAR CITY     PTCLDY     8   4  83 NW6       30.46R WCI  -2
DELTA          CLOUDY     4   1  88 CALM      30.55R
HANKSVILLE     CLOUDY    18  14  86 CALM      30.55R VSB 1/2
MILFORD        MOCLDY    -1  -5  82 CALM      30.51F
MOAB/CYNLANDS  CLOUDY     8   4  83 CALM      30.51R
PRICE          PTCLDY    11   6  81 NW3       30.43R
ST GEORGE      MOSUNNY   30  21  69 NE7       30.46R WCI  23

$$

REGIONAL REPORTS     COLORADO/ARIZONA

CITY           SKY/WX    TMP DP  RH WIND       PRES   REMARKS
CRAIG, CO      CLOUDY    -2  -5  87 CALM      30.43R
GRAND JUNCTION CLOUDY     9   7  92 E5        30.51R WCI   1
RIFLE          CLOUDY     8   3  80 CALM      30.50R
MONTROSE       CLOUDY    14   9  80 S3        30.49R
CORTEZ         CLOUDY    13   8  81 NE8       30.39F WCI   2
PAGE, AZ       CLEAR     27  22  81 CALM      30.47R
GRAND CANYON   CLEAR     17  10  74 NE3       30.41R
KINGMAN        CLEAR     32  23  69 E3        30.32S
FLAGSTAFF      CLEAR     11   7  84 CALM      30.39R

$$

REGIONAL REPORTS    NEVADA/IDAHO/WYOMING

CITY           SKY/WX    TMP DP  RH WIND       PRES   REMARKS
LAS VEGAS, NV  CLEAR     41  25  53 S5        30.32R
ELY            PTCLDY     5  -1  76 S14       30.52R WCI -12
ELKO           CLOUDY     8   4  83 E5        30.58R WCI   0
POCATELLO, ID  CLOUDY    32  24  72 S10       30.50R WCI  24
BURLEY         CLEAR     28  24  85 CALM      30.49R
EVANSTON, WY   CLOUDY    23  13  65 SW21      30.44R WCI   8
ROCK SPRINGS   CLOUDY    24  16  71 W18       30.39R WCI  10

$$




USA.gov is the U.S. government's official web portal to all federal, state and local government web resources and services.